User: anonymous   Login
Location: Korczew
(51.3586°N, 19.4491°E)
Time: 22:42:15
(UTC+00:00)
Language:

Cosmos 1666 Rocket - Orbit

View from above orbital plane
View from above orbital plane
View from above satellite
View from above satellite

Ground track
Ground track

The orbit data is extracted from the following two-line orbital elements,

1 15890U 85058B   25188.61128094  .00000342  00000-0  36765-4 0  9994
2 15890  82.5247  25.1433 0018924 230.0486 129.9069 14.85464794140078
Epoch (UTC): 07 July 2025 14:40:14
Eccentricity: 0.0018924
inclination: 82.5247°
perigee height: 599 km
apogee height: 625 km
right ascension of ascending node: 25.1433°
argument of perigee: 230.0486°
revolutions per day: 14.85464794
mean anomaly at epoch: 129.9069°
orbit number at epoch: 14007

The dashed part of the orbit path shows where the satellite is in the earth's shadow,  

DLR